Location: Batesville
(34.7480°N, 83.6110°W)
Time: 20:13:53
(UTC-05:00)

Envisat - Pass Details

Date: 20 January 2018
Orbit: 764 x 766 km, 98.2° (Epoch: 21 February)

Event Time Altitude Azimuth Distance (km) Brightness Sun altitude
Exits shadow 20:28:44 11° 345° (NNW) 2,260 5.5 -32.0°
Drops below altitude 10° 20:28:53 10° 345° (NNW) 2,319 5.6 -32.1°
Sets 20:31:10 0° 347° (NNW) 3,237 6.4 -32.5°
